Time,TemperatureF,DewpointF,PressureIn,WindDirection,WindDirectionDegrees,WindSpeedMPH,WindSpeedGustMPH,Humidity,HourlyPrecipIn,Conditions,Clouds,dailyrainin,SoftwareType,DateUTC
2013-02-21 00:00:00,19.0,-99.9,-100.00,North,6,4.0,11.0,-999,-99.99,,,-99.99,,2013-02-21 06:00:00,
2013-02-21 00:31:00,19.0,-99.9,-100.00,North,6,4.0,11.0,-999,-99.99,,,-99.99,,2013-02-21 06:31:00,
2013-02-21 00:42:00,19.0,-99.9,-100.00,North,6,4.0,11.0,-999,-99.99,,,-99.99,,2013-02-21 06:42:00,
2013-02-21 00:52:00,19.0,-99.9,-100.00,North,6,4.0,11.0,-999,-99.99,,,-99.99,,2013-02-21 06:52:00,
2013-02-21 01:00:00,18.0,-99.9,-100.00,North,357,4.0,7.0,-999,-99.99,,,-99.99,,2013-02-21 07:00:00,
2013-02-21 01:32:00,18.0,-99.9,-100.00,North,357,4.0,7.0,-999,-99.99,,,-99.99,,2013-02-21 07:32:00,
2013-02-21 01:42:00,18.0,-99.9,-100.00,North,357,4.0,7.0,-999,-99.99,,,-99.99,,2013-02-21 07:42:00,
2013-02-21 01:52:00,18.0,-99.9,-100.00,North,357,4.0,7.0,-999,-99.99,,,-99.99,,2013-02-21 07:52:00,
2013-02-21 02:00:00,18.0,-99.9,-100.00,ENE,73,4.0,6.0,-999,-99.99,,,-99.99,,2013-02-21 08:00:00,
2013-02-21 02:32:00,18.0,-99.9,-100.00,ENE,73,4.0,6.0,-999,-99.99,,,-99.99,,2013-02-21 08:32:00,
2013-02-21 02:42:00,18.0,-99.9,-100.00,ENE,73,4.0,6.0,-999,-99.99,,,-99.99,,2013-02-21 08:42:00,
2013-02-21 02:52:00,18.0,-99.9,-100.00,ENE,73,4.0,6.0,-999,-99.99,,,-99.99,,2013-02-21 08:52:00,
2013-02-21 03:00:00,17.0,-99.9,-100.00,NNE,18,4.0,7.0,-999,-99.99,,,-99.99,,2013-02-21 09:00:00,
2013-02-21 03:32:00,17.0,-99.9,-100.00,NNE,18,4.0,7.0,-999,-99.99,,,-99.99,,2013-02-21 09:32:00,
2013-02-21 03:42:00,17.0,-99.9,-100.00,NNE,18,4.0,7.0,-999,-99.99,,,-99.99,,2013-02-21 09:42:00,
2013-02-21 03:52:00,17.0,-99.9,-100.00,NNE,18,4.0,7.0,-999,-99.99,,,-99.99,,2013-02-21 09:52:00,
2013-02-21 04:00:00,17.0,-99.9,-100.00,ENE,73,4.0,9.0,-999,-99.99,,,-99.99,,2013-02-21 10:00:00,
2013-02-21 04:31:00,17.0,-99.9,-100.00,ENE,73,4.0,9.0,-999,-99.99,,,-99.99,,2013-02-21 10:31:00,
2013-02-21 04:41:00,17.0,-99.9,-100.00,ENE,73,4.0,9.0,-999,-99.99,,,-99.99,,2013-02-21 10:41:00,
2013-02-21 04:51:00,17.0,-99.9,-100.00,ENE,73,4.0,9.0,-999,-99.99,,,-99.99,,2013-02-21 10:51:00,
2013-02-21 05:00:00,18.0,-99.9,-100.00,NNW,348,4.0,8.0,-999,-99.99,,,-99.99,,2013-02-21 11:00:00,
2013-02-21 05:52:00,18.0,-99.9,-100.00,NNW,348,4.0,8.0,-999,-99.99,,,-99.99,,2013-02-21 11:52:00,
2013-02-21 06:00:00,16.0,-99.9,-100.00,NNW,334,4.0,10.0,-999,-99.99,,,-99.99,,2013-02-21 12:00:00,
2013-02-21 06:32:00,16.0,-99.9,-100.00,NNW,334,4.0,10.0,-999,-99.99,,,-99.99,,2013-02-21 12:32:00,
2013-02-21 06:43:00,16.0,-99.9,-100.00,NNW,334,4.0,10.0,-999,-99.99,,,-99.99,,2013-02-21 12:43:00,
2013-02-21 06:53:00,16.0,-99.9,-100.00,NNW,334,4.0,10.0,-999,-99.99,,,-99.99,,2013-02-21 12:53:00,
2013-02-21 08:00:00,18.0,-99.9,-100.00,NNE,17,6.0,17.0,-999,-99.99,,,-99.99,,2013-02-21 14:00:00,
2013-02-21 08:32:00,18.0,-99.9,-100.00,NNE,17,6.0,17.0,-999,-99.99,,,-99.99,,2013-02-21 14:32:00,
2013-02-21 08:42:00,18.0,-99.9,-100.00,NNE,17,6.0,17.0,-999,-99.99,,,-99.99,,2013-02-21 14:42:00,
2013-02-21 08:52:00,18.0,-99.9,-100.00,NNE,17,6.0,17.0,-999,-99.99,,,-99.99,,2013-02-21 14:52:00,
2013-02-21 09:00:00,18.0,-99.9,-100.00,ENE,77,6.0,19.0,-999,-99.99,,,-99.99,,2013-02-21 15:00:00,
2013-02-21 09:32:00,18.0,-99.9,-100.00,ENE,77,6.0,19.0,-999,-99.99,,,-99.99,,2013-02-21 15:32:00,
2013-02-21 09:42:00,18.0,-99.9,-100.00,ENE,77,6.0,19.0,-999,-99.99,,,-99.99,,2013-02-21 15:42:00,
2013-02-21 09:52:00,18.0,-99.9,-100.00,ENE,77,6.0,19.0,-999,-99.99,,,-99.99,,2013-02-21 15:52:00,
2013-02-21 10:00:00,19.0,-99.9,-100.00,North,9,7.0,15.0,-999,-99.99,,,-99.99,,2013-02-21 16:00:00,
2013-02-21 10:32:00,19.0,-99.9,-100.00,North,9,7.0,15.0,-999,-99.99,,,-99.99,,2013-02-21 16:32:00,
2013-02-21 10:42:00,19.0,-99.9,-100.00,North,9,7.0,15.0,-999,-99.99,,,-99.99,,2013-02-21 16:42:00,
2013-02-21 10:52:00,19.0,-99.9,-100.00,North,9,7.0,15.0,-999,-99.99,,,-99.99,,2013-02-21 16:52:00,
2013-02-21 11:00:00,21.0,-99.9,-100.00,NE,52,4.0,18.0,-999,-99.99,,,-99.99,,2013-02-21 17:00:00,
2013-02-21 11:32:00,21.0,-99.9,-100.00,NE,52,4.0,18.0,-999,-99.99,,,-99.99,,2013-02-21 17:32:00,
2013-02-21 11:42:00,21.0,-99.9,-100.00,NE,52,4.0,18.0,-999,-99.99,,,-99.99,,2013-02-21 17:42:00,
2013-02-21 11:52:00,21.0,-99.9,-100.00,NE,52,4.0,18.0,-999,-99.99,,,-99.99,,2013-02-21 17:52:00,
2013-02-21 13:00:00,23.0,-99.9,-100.00,North,9,13.0,26.0,-999,-99.99,,,-99.99,,2013-02-21 19:00:00,
2013-02-21 13:32:00,23.0,-99.9,-100.00,North,9,13.0,26.0,-999,-99.99,,,-99.99,,2013-02-21 19:32:00,
2013-02-21 13:42:00,23.0,-99.9,-100.00,North,9,13.0,26.0,-999,-99.99,,,-99.99,,2013-02-21 19:42:00,
2013-02-21 13:52:00,23.0,-99.9,-100.00,North,9,13.0,26.0,-999,-99.99,,,-99.99,,2013-02-21 19:52:00,
2013-02-21 14:00:00,24.0,-99.9,-100.00,North,10,25.0,25.0,-999,-99.99,,,-99.99,,2013-02-21 20:00:00,
2013-02-21 14:32:00,24.0,-99.9,-100.00,North,10,25.0,25.0,-999,-99.99,,,-99.99,,2013-02-21 20:32:00,
2013-02-21 14:42:00,24.0,-99.9,-100.00,North,10,25.0,25.0,-999,-99.99,,,-99.99,,2013-02-21 20:42:00,
2013-02-21 14:53:00,24.0,-99.9,-100.00,North,10,25.0,25.0,-999,-99.99,,,-99.99,,2013-02-21 20:53:00,
2013-02-21 15:00:00,25.0,-99.9,-100.00,NNE,22,12.0,20.0,-999,-99.99,,,-99.99,,2013-02-21 21:00:00,
2013-02-21 15:32:00,25.0,-99.9,-100.00,NNE,22,12.0,20.0,-999,-99.99,,,-99.99,,2013-02-21 21:32:00,
2013-02-21 15:42:00,25.0,-99.9,-100.00,NNE,22,12.0,20.0,-999,-99.99,,,-99.99,,2013-02-21 21:42:00,
2013-02-21 15:52:00,25.0,-99.9,-100.00,NNE,22,12.0,20.0,-999,-99.99,,,-99.99,,2013-02-21 21:52:00,
2013-02-21 16:00:00,25.0,-99.9,-100.00,North,6,15.0,21.0,-999,-99.99,,,-99.99,,2013-02-21 22:00:00,
2013-02-21 16:32:00,25.0,-99.9,-100.00,North,6,15.0,21.0,-999,-99.99,,,-99.99,,2013-02-21 22:32:00,
2013-02-21 16:42:00,25.0,-99.9,-100.00,North,6,15.0,21.0,-999,-99.99,,,-99.99,,2013-02-21 22:42:00,
2013-02-21 16:52:00,25.0,-99.9,-100.00,North,6,15.0,21.0,-999,-99.99,,,-99.99,,2013-02-21 22:52:00,
2013-02-21 17:00:00,23.0,-99.9,-100.00,NNE,25,8.0,15.0,-999,-99.99,,,-99.99,,2013-02-21 23:00:00,
2013-02-21 17:32:00,23.0,-99.9,-100.00,NNE,25,8.0,15.0,-999,-99.99,,,-99.99,,2013-02-21 23:32:00,
2013-02-21 17:42:00,23.0,-99.9,-100.00,NNE,25,8.0,15.0,-999,-99.99,,,-99.99,,2013-02-21 23:42:00,
2013-02-21 17:53:00,23.0,-99.9,-100.00,NNE,25,8.0,15.0,-999,-99.99,,,-99.99,,2013-02-21 23:53:00,
2013-02-21 18:00:00,22.0,-99.9,-100.00,North,3,6.0,19.0,-999,-99.99,,,-99.99,,2013-02-22 00:00:00,
2013-02-21 18:52:00,22.0,-99.9,-100.00,North,3,6.0,19.0,-999,-99.99,,,-99.99,,2013-02-22 00:52:00,
2013-02-21 19:00:00,21.0,-99.9,-100.00,NNW,341,19.0,19.0,-999,-99.99,,,-99.99,,2013-02-22 01:00:00,
2013-02-21 19:42:00,21.0,-99.9,-100.00,NNW,341,19.0,19.0,-999,-99.99,,,-99.99,,2013-02-22 01:42:00,
2013-02-21 19:52:00,21.0,-99.9,-100.00,NNW,341,19.0,19.0,-999,-99.99,,,-99.99,,2013-02-22 01:52:00,
2013-02-21 20:00:00,22.0,-99.9,-100.00,North,6,5.0,14.0,-999,-99.99,,,-99.99,,2013-02-22 02:00:00,
2013-02-21 20:32:00,22.0,-99.9,-100.00,North,6,5.0,14.0,-999,-99.99,,,-99.99,,2013-02-22 02:32:00,
2013-02-21 20:42:00,22.0,-99.9,-100.00,North,6,5.0,14.0,-999,-99.99,,,-99.99,,2013-02-22 02:42:00,
2013-02-21 20:52:00,22.0,-99.9,-100.00,North,6,5.0,14.0,-999,-99.99,,,-99.99,,2013-02-22 02:52:00,
2013-02-21 21:00:00,21.0,-99.9,-100.00,NNW,343,11.0,14.0,-999,-99.99,,,-99.99,,2013-02-22 03:00:00,
2013-02-21 21:32:00,21.0,-99.9,-100.00,NNW,343,11.0,14.0,-999,-99.99,,,-99.99,,2013-02-22 03:32:00,
2013-02-21 21:42:00,21.0,-99.9,-100.00,NNW,343,11.0,14.0,-999,-99.99,,,-99.99,,2013-02-22 03:42:00,
2013-02-21 21:52:00,21.0,-99.9,-100.00,NNW,343,11.0,14.0,-999,-99.99,,,-99.99,,2013-02-22 03:52:00,
2013-02-21 22:00:00,21.0,-99.9,-100.00,North,8,7.0,18.0,-999,-99.99,,,-99.99,,2013-02-22 04:00:00,
2013-02-21 22:32:00,21.0,-99.9,-100.00,North,8,7.0,18.0,-999,-99.99,,,-99.99,,2013-02-22 04:32:00,
2013-02-21 22:42:00,21.0,-99.9,-100.00,North,8,7.0,18.0,-999,-99.99,,,-99.99,,2013-02-22 04:42:00,
2013-02-21 22:52:00,21.0,-99.9,-100.00,North,8,7.0,18.0,-999,-99.99,,,-99.99,,2013-02-22 04:52:00,
2013-02-21 23:00:00,21.0,-99.9,-100.00,NNW,346,7.0,20.0,-999,-99.99,,,-99.99,,2013-02-22 05:00:00,
2013-02-21 23:52:00,21.0,-99.9,-100.00,NNW,346,7.0,20.0,-999,-99.99,,,-99.99,,2013-02-22 05:52:00,